Погода в Белогорском

Россия / Архангельская область     64°11′14″N   42°20′09″E
темп.,
°C
ветер,
м/с
пор.,
м/с
влажн.,
%
обл.,
%
осадки,
мм/ч
давл.,
гПа
погр.,
м
7 августа, вс
вс700:00+21ю414690 0.0 1012464
03:00+20ю415690 0.0 1011535
06:00+20ю413680 0.0 1010466
09:00+23юз5106630 0.2 10101059
12:00+16з41090100 0.9 1012563
15:00+15юз3990100 1.1 1013651
18:00+19юз4866100 0.0 1013953
21:00+16з266384 0.0 1014325
8 августа, пн
пн800:00+12юз278097 0.0 1015166
03:00+13зюз3977100 0.0 1016388
06:00+13зюз37784 0.0 1018277
09:00+17зюз47535 0.0 10191237
12:00+19зюз573994 0.0 10192372
15:00+17зюз365097 0.0 10211031
18:00+18з254898 0.0 10211431
21:00+14зюз226537 0.0 102244
9 августа, вт
вт900:00+11зюз11815 0.0 102311
03:00+10з118298 0.0 102410
06:00+12ю11725 0.0 102562
09:00+18юз114949 0.0 1025638
12:00+21зюз233777 0.0 10252220
15:00+20юз2242100 0.0 10241157
18:00+19юз125299 0.0 102439
21:00+15с116378 0.0 102411
10 августа, ср
ср1000:00+12ссв117314 0.0 102511
03:00+10с117431 0.0 102410
06:00+13с12669 0.0 102470
09:00+19всв11465 0.0 1023578
12:00+22з12395 0.0 10221796
15:00+22зсз233897 0.0 10212305
18:00+19сз1157100 0.0 102011
21:00+16ююз116286 0.0 102011
11 августа, чт
чт1100:00+15юз116799 0.0 101915
03:00+13юз247571 0.0 101893
06:00+14юз287389 0.0 1018240
09:00+19юз4853100 0.0 1016808
12:00+21юз6941100 0.0 10141566
15:00+17зюз51072100 0.2 1013981
18:00+15юз51094100 1.9 1012733
21:00+15юз31097100 2.6 1011459